Theta_e
309 311 310 309 311 311 311 315 314 314 318 321 318 315 311 313 321 323 317 315 316 310 306 308 307 306 308 307 306 310 313 315 317 319 320 321 321 321 321 321 321 320 319 318 316 315 315 312 310 311 314 319 321 322 322 321 321 320 320 321 322 323 323 323 323 323 322 321 320 320 321 319 319 320 320 319 319 318 317 317 316 316 317 317 318 317 317
309 311 312 309 311 313 313 314 312 313 317 316 315 315 310 310 315 316 314 314 311 305 304 306 304 304 306 306 308 310 311 312 314 316 317 318 319 319 319 320 320 320 320 319 318 318 317 316 314 314 317 320 321 321 322 321 321 321 320 320 321 322 322 322 322 322 321 320 319 320 321 320 320 319 319 318 317 317 317 317 317 317 317 318 318 318 318
310 311 312 309 311 316 315 312 310 311 312 313 313 313 310 311 311 307 310 314 309 304 303 303 302 304 305 306 307 307 308 310 311 313 314 315 315 316 316 317 317 318 319 319 318 318 318 318 318 318 318 319 319 319 320 320 320 321 320 320 320 320 320 320 321 321 321 320 320 320 319 319 318 318 318 317 317 316 317 317 317 316 316 316 317 317 317
311 309 310 309 312 314 313 312 312 311 312 312 311 309 307 308 309 309 312 314 308 304 303 301 301 302 302 303 304 304 306 309 310 310 311 312 312 313 314 314 315 315 315 316 316 316 316 316 316 316 316 316 316 316 316 316 317 317 318 317 317 315 314 315 316 317 316 316 316 315 315 315 315 315 314 314 314 314 314 313 313 313 313 314 315 316 316
309 308 310 310 312 312 312 311 308 307 308 307 307 306 303 302 305 310 313 310 305 303 302 301 301 300 300 300 301 302 304 306 308 309 309 309 309 309 310 311 312 311 311 312 312 312 312 311 311 312 312 312 313 313 312 312 312 312 313 313 313 311 309 309 310 310 310 310 310 310 310 311 311 311 311 310 311 311 311 311 311 311 311 312 312 313 313
309 308 310 310 311 313 311 306 303 304 306 306 306 305 302 301 303 306 307 305 303 302 302 301 300 299 299 299 299 300 301 303 306 308 307 307 307 307 307 307 307 308 308 309 309 309 309 309 309 309 309 309 310 309 309 309 309 309 309 309 310 309 308 308 308 308 307 308 308 308 308 308 309 309 309 309 309 309 309 310 309 309 309 309 309 309 309
311 309 310 311 312 310 307 303 303 304 304 303 303 302 301 302 303 303 303 303 302 301 300 300 300 299 298 299 299 299 299 300 302 304 306 307 307 306 306 306 305 306 306 307 307 307 307 308 307 307 307 307 307 307 307 307 307 307 306 306 307 308 308 308 307 307 307 307 307 308 308 308 308 308 308 308 308 308 308 307 306 306 306 305 305 305 304
308 309 312 311 308 305 303 305 305 303 303 304 306 305 302 301 302 302 303 302 300 300 300 300 300 299 299 298 298 298 299 299 299 300 302 303 304 305 305 306 306 306 306 306 306 307 307 307 307 307 307 307 306 306 306 306 306 306 306 306 306 307 307 307 307 307 307 307 307 307 308 308 308 308 308 308 307 306 305 304 303 303 304 304 304 303 303
308 311 310 307 306 305 305 306 304 303 303 304 306 307 303 300 300 301 302 303 300 299 301 302 301 300 300 299 298 298 298 299 299 299 299 299 300 301 302 304 305 306 306 306 305 306 307 307 307 307 307 307 306 306 306 306 306 306 306 306 306 306 307 307 307 307 307 306 306 307 308 308 308 308 308 308 307 306 306 305 305 305 305 305 304 304 304
307 311 309 307 310 311 308 306 303 301 301 300 302 306 304 300 298 298 300 302 299 297 300 302 301 303 303 301 299 298 298 299 299 299 299 299 299 299 300 301 302 303 304 304 303 303 304 306 307 306 306 306 306 307 307 306 306 306 306 306 306 306 306 306 306 307 306 306 306 307 307 308 308 308 308 307 307 307 306 307 306 306 306 305 305 304 304
306 311 314 311 311 309 305 303 301 299 299 299 301 307 306 300 298 297 297 298 297 297 299 300 301 306 306 301 298 298 298 299 299 299 300 300 300 300 300 300 300 300 301 301 301 301 302 303 305 305 305 306 305 306 306 306 306 306 306 306 306 306 306 306 306 306 306 306 306 306 307 307 307 307 307 307 307 306 306 306 305 305 305 305 305 305 304
308 310 311 307 306 305 302 301 300 299 298 299 303 310 308 299 297 297 297 297 297 298 299 299 300 304 304 300 298 298 298 299 299 299 300 300 300 300 300 300 300 300 300 300 300 300 301 301 302 302 303 304 305 305 306 305 306 305 306 306 306 306 306 306 306 306 306 306 306 306 306 306 306 306 306 306 306 305 305 304 304 304 305 305 305 305 305
309 310 310 306 304 303 300 299 299 299 299 302 306 309 303 297 296 298 297 298 298 298 299 299 299 300 300 298 298 298 298 298 299 299 299 299 299 299 300 300 300 300 300 301 301 300 300 301 302 301 302 302 303 304 304 304 305 305 305 305 305 306 306 306 306 305 305 305 306 306 306 306 305 305 305 305 304 304 303 303 303 303 304 304 305 304 304
306 307 308 306 304 301 298 297 298 299 302 306 305 301 298 296 297 298 297 298 298 297 298 298 298 298 298 298 298 298 298 298 298 298 298 298 298 298 298 298 298 299 300 300 300 300 300 300 300 300 300 300 301 302 302 302 303 303 302 303 304 304 305 306 306 305 305 305 305 305 305 305 305 305 304 304 303 303 303 303 303 302 302 302 302 302 302
304 305 306 306 305 300 297 298 300 300 303 303 299 297 297 297 297 297 298 298 298 298 298 298 298 298 298 298 298 298 298 298 297 297 298 297 297 297 297 297 297 298 298 298 299 299 299 299 299 299 299 300 300 300 301 301 301 301 301 302 302 303 304 305 305 304 304 304 304 303 304 304 304 304 304 303 303 303 303 303 303 302 301 300 300 300 300
305 308 305 302 300 297 296 299 300 299 299 299 297 297 298 298 298 298 298 298 298 298 298 298 298 298 297 298 298 297 297 297 297 297 297 296 297 297 297 297 297 297 297 297 297 298 298 298 298 298 298 299 299 299 300 300 301 301 301 301 301 302 303 303 304 304 304 304 303 303 303 303 303 303 303 303 303 303 303 302 302 302 301 300 300 300 301
300 303 301 298 297 297 297 298 298 297 298 298 298 298 298 298 298 298 298 298 298 298 298 298 298 297 297 297 297 297 297 297 296 297 296 296 297 296 296 297 296 296 297 297 297 297 297 297 298 298 298 298 298 299 299 299 300 300 300 301 301 301 302 302 302 303 303 303 303 303 303 303 303 303 303 303 303 303 302 302 302 302 301 301 301 301 302
297 299 298 296 297 297 297 298 298 298 298 298 298 298 298 298 298 297 297 298 297 297 297 297 297 297 297 296 296 296 296 296 296 297 296 296 297 296 296 296 296 296 296 296 296 296 296 297 297 297 297 298 298 298 298 299 300 301 300 301 301 301 301 301 301 302 302 303 303 303 303 303 303 303 303 303 303 302 302 302 302 302 302 302 302 301 301
299 299 297 296 297 297 297 298 298 298 298 298 298 298 297 297 298 297 297 297 297 297 297 296 296 297 296 296 296 296 296 296 296 296 296 296 296 296 296 296 296 296 296 296 296 296 296 296 296 297 297 298 297 297 298 298 300 301 301 301 302 302 302 302 302 303 303 303 303 303 304 304 303 303 303 302 302 302 302 302 302 301 301 301 301 301 301
300 298 296 296 297 297 297 298 298 297 298 297 297 297 297 297 297 297 297 297 297 297 297 296 296 296 296 296 296 296 296 296 296 296 296 296 296 296 296 296 296 296 296 296 296 296 295 296 296 296 296 297 297 297 297 297 298 299 300 300 301 301 301 302 302 302 303 303 303 303 303 302 302 302 302 301 301 301 301 301 301 301 301 301 300 300 300
297 296 295 296 297 297 297 297 297 297 297 297 297 297 297 297 297 297 296 297 297 296 296 296 296 296 296 296 296 295 295 295 295 295 295 295 295 295 295 295 295 295 295 295 295 295 295 295 295 295 296 296 296 297 297 297 297 298 298 299 300 300 300 300 300 301 301 301 301 301 301 301 301 300 300 300 300 300 300 300 300 300 300 300 300 300 300
298 298 297 296 297 298 297 297 297 297 297 297 297 297 297 297 297 297 297 296 296 296 296 296 296 295 295 295 294 294 293 293 293 293 292 292 293 293 292 293 293 293 293 293 293 293 294 294 294 295 295 296 296 297 297 297 297 297 297 298 298 299 299 299 299 299 300 300 300 300 300 300 300 300 300 300 300 300 300 300 300 300 300 300 300 300 301
299 298 297 296 297 298 297 296 297 297 297 297 297 296 297 296 296 296 296 296 296 296 295 295 295 294 293 292 292 292 291 291 291 291 291 291 291 291 291 291 291 291 291 291 291 291 292 292 292 293 294 295 296 296 297 297 297 297 297 297 297 298 298 298 299 299 299 300 299 299 299 299 299 299 300 300 299 299 299 300 300 300 300 300 300 300 300
297 297 297 297 297 297 296 297 297 296 297 297 296 296 296 296 296 296 296 295 295 295 294 293 293 292 291 291 291 291 291 291 290 290 290 290 290 291 291 291 290 290 290 290 290 290 290 290 290 291 292 294 296 297 297 297 297 297 298 298 298 298 299 299 299 300 300 300 300 300 300 300 300 300 300 300 300 300 299 299 299 299 299 298 298 299 299
297 297 297 297 297 297 297 297 296 296 297 296 296 296 296 295 295 295 294 294 293 293 292 292 291 291 291 291 290 290 290 290 290 290 290 290 290 290 290 289 289 289 289 289 289 289 290 290 290 290 291 293 296 297 298 298 298 299 299 299 300 300 300 301 301 301 301 301 300 300 300 300 300 300 300 300 300 299 298 298 298 298 298 298 298 298 299
296 296 297 297 297 297 297 296 296 296 296 296 296 296 295 295 295 294 293 293 292 292 291 291 291 291 290 289 289 289 289 289 289 289 289 289 289 288 288 288 287 287 287 287 288 288 288 289 289 290 290 292 295 297 298 299 299 299 299 300 301 301 301 301 300 301 300 300 300 300 300 299 299 299 299 299 299 298 298 298 298 298 298 298 298 298 298
297 297 297 296 296 296 296 296 296 296 296 296 295 295 295 294 294 293 292 292 291 291 291 290 290 290 289 289 289 289 289 289 289 289 288 288 288 288 288 287 287 287 287 287 287 287 287 287 288 289 290 292 295 297 298 298 299 299 300 300 300 300 300 300 299 299 299 298 298 298 298 298 298 298 298 298 298 298 298 298 298 298 298 298 298 299 299
297 297 296 295 295 295 296 296 296 296 296 295 295 295 294 293 292 292 291 291 291 290 289 289 289 288 288 289 289 289 289 289 289 288 288 288 288 288 289 288 288 288 288 288 287 287 286 286 287 287 289 292 294 296 297 298 299 299 299 300 300 300 299 299 298 298 298 298 298 298 298 298 298 298 298 298 298 298 298 298 298 298 298 298 299 299 300
297 296 296 295 295 295 296 296 296 296 295 295 295 294 293 293 292 291 291 290 289 289 288 288 289 289 289 289 289 288 288 288 288 288 288 289 289 289 289 289 289 289 289 289 289 289 288 287 287 287 288 291 294 296 297 297 298 299 299 299 299 299 298 298 298 297 297 297 297 297 297 297 297 297 297 297 297 298 298 298 297 297 298 299 300 300 301
297 296 296 296 295 296 296 296 296 295 294 294 294 293 292 292 292 291 290 289 288 288 288 289 290 290 290 289 289 288 287 288 288 288 289 289 290 290 289 289 289 289 289 289 290 290 289 288 288 288 288 290 292 295 297 297 298 298 299 298 298 297 297 297 297 296 296 296 295 295 296 296 296 296 296 296 297 298 298 297 297 298 299 300 300 301 301
296 296 296 296 296 296 296 295 295 294 294 294 293 293 293 292 291 290 289 288 288 288 289 290 290 290 290 290 289 287 287 288 289 290 290 290 290 290 289 289 289 289 289 290 290 290 290 289 289 288 288 289 291 295 296 297 297 298 298 297 297 296 296 296 295 295 295 295 294 294 295 295 295 295 295 296 298 298 298 298 298 298 299 300 300 300 300
296 296 296 296 296 296 296 295 295 294 294 293 293 293 293 292 290 289 288 288 288 289 289 290 290 290 291 291 289 287 287 289 290 291 290 290 290 290 289 289 289 290 290 290 290 291 291 290 290 289 289 289 291 294 296 297 297 298 297 296 296 296 295 295 295 294 294 294 294 294 294 295 295 295 295 297 298 298 298 298 298 297 297 298 298 297 296
295 296 295 295 296 295 295 295 295 294 294 293 293 293 293 291 289 288 288 288 289 289 289 290 290 290 291 290 288 287 289 291 292 291 290 290 290 290 290 290 291 291 291 291 291 291 291 291 291 290 290 291 293 295 296 297 297 297 296 296 296 296 295 295 294 294 294 294 294 293 294 294 294 295 295 296 296 297 297 297 296 295 295 296 295 295 295
294 295 295 295 295 295 295 295 295 294 294 293 293 292 291 289 289 289 289 289 289 289 290 289 289 290 291 290 287 288 291 292 291 291 290 290 291 292 292 292 292 292 292 292 291 292 292 292 291 291 291 293 294 295 296 297 297 297 296 296 296 296 296 295 295 295 295 295 294 293 293 293 294 294 294 295 295 295 295 295 295 295 295 295 294 294 294
295 295 296 295 295 295 295 294 294 293 293 293 293 291 289 289 290 290 290 290 290 290 290 289 288 290 291 289 286 288 291 292 291 291 291 291 292 292 293 293 293 294 293 292 292 292 292 292 292 292 293 294 295 295 296 297 297 297 296 296 296 296 296 296 296 296 296 295 294 294 294 294 294 294 294 295 295 295 295 295 295 295 295 294 294 294 294
295 295 295 295 295 295 294 293 293 293 293 292 291 290 290 290 290 290 290 290 290 289 289 288 288 290 291 288 285 287 291 291 291 291 291 291 292 293 293 294 294 295 294 294 293 293 292 292 293 293 294 295 295 296 296 297 297 297 296 296 296 297 297 297 297 297 297 296 296 295 295 295 294 294 294 294 294 294 294 294 294 294 294 294 295 295 295
295 295 295 295 295 294 294 293 293 293 293 291 290 290 290 290 290 290 290 289 288 288 287 288 290 291 290 286 285 286 289 291 291 291 292 292 293 293 294 294 295 295 295 295 295 294 293 293 294 294 295 296 296 296 296 297 297 296 296 297 297 297 297 297 297 297 297 297 296 296 296 295 295 295 294 294 294 294 294 294 294 294 295 295 295 295 295
294 295 295 295 294 294 294 293 293 294 293 291 290 290 290 290 290 290 289 288 287 287 287 289 290 290 288 285 285 286 288 289 291 291 292 293 293 293 294 294 294 295 295 295 296 296 295 294 294 295 296 296 297 297 297 297 296 296 297 297 297 297 297 297 297 297 297 297 297 297 296 296 296 296 295 295 295 295 295 295 295 295 295 295 295 295 294
294 295 295 294 294 294 294 294 294 293 292 291 291 291 290 290 290 290 289 287 286 287 288 289 290 289 287 285 285 286 287 288 290 290 292 293 293 293 293 294 294 294 294 295 296 297 296 296 296 296 296 297 297 297 297 297 296 297 297 297 297 296 296 297 297 297 297 297 297 297 297 297 297 296 296 296 296 296 296 296 295 295 295 295 295 294 294
295 295 295 294 294 294 294 294 294 293 293 292 291 290 290 290 290 289 288 287 286 287 288 289 289 288 286 285 285 286 287 288 289 289 290 292 293 294 294 294 294 295 295 295 295 296 297 297 297 297 297 297 297 297 297 296 297 297 297 297 297 297 297 296 296 296 297 297 297 297 296 297 297 296 296 296 296 296 296 295 295 295 294 294 294 294 294
294 295 295 294 294 294 294 293 293 292 292 291 290 290 290 290 290 288 287 286 286 286 288 288 288 287 286 285 285 285 286 287 288 288 289 290 292 293 293 294 294 294 295 295 295 295 296 296 297 296 297 297 297 297 297 297 297 297 297 297 297 297 297 297 296 296 296 296 296 296 296 296 296 296 296 296 296 295 295 294 294 294 294 294 294 294 294
294 295 295 295 294 294 293 292 291 290 290 290 290 290 290 290 289 288 287 287 286 286 286 287 287 287 286 285 285 285 285 286 287 288 288 288 289 290 292 293 293 294 295 295 296 296 296 296 297 297 297 297 297 297 297 297 297 297 297 297 297 297 297 297 296 296 296 295 295 295 295 295 295 295 295 295 295 294 294 294 294 294 293 294 294 294 294
294 295 295 295 295 294 293 291 290 290 290 291 290 291 291 291 290 289 288 288 288 287 286 286 286 286 286 285 285 285 285 285 286 287 287 287 288 288 290 291 292 293 294 295 296 296 296 296 296 296 296 296 296 297 297 297 297 297 297 297 297 297 297 296 296 296 295 295 295 295 295 294 295 294 294 294 294 294 294 294 294 293 293 293 293 293 293
294 295 295 295 295 294 294 292 291 291 291 291 291 291 291 291 290 289 289 289 289 288 287 287 286 285 285 285 285 285 285 285 285 285 286 286 287 287 288 289 290 292 293 295 295 295 295 296 296 296 296 296 296 297 297 297 297 297 297 297 297 297 297 296 296 295 295 295 294 294 294 294 294 294 294 293 293 293 293 293 293 293 292 292 292 292 292
294 294 295 295 295 295 294 293 292 291 292 292 292 292 292 291 291 290 290 290 290 289 289 288 287 286 286 286 286 285 285 285 284 284 285 286 286 286 286 287 288 290 292 294 295 295 295 295 295 295 296 296 296 297 297 297 297 297 297 297 297 296 296 295 295 295 294 294 294 294 294 293 293 293 293 293 293 293 293 292 292 292 292 291 291 291 291
293 294 294 295 295 295 295 294 293 293 293 293 293 292 292 291 291 291 291 290 290 290 289 289 288 287 286 286 286 286 286 285 285 285 285 285 285 285 285 286 287 288 289 291 293 294 294 294 295 295 295 295 295 296 296 296 296 296 296 296 295 295 295 294 294 294 294 294 294 294 293 293 293 293 292 292 292 292 291 291 291 290 290 290 290 290 291
293 293 294 295 295 295 295 295 294 294 293 293 293 293 292 292 292 292 292 291 291 290 290 290 289 288 287 286 286 286 286 286 286 285 285 285 285 285 285 285 286 286 287 288 289 291 292 293 294 294 295 295 295 295 295 295 295 295 295 294 294 294 293 293 293 293 293 293 293 292 292 291 291 290 290 290 290 290 290 290 290 290 290 290 291 291 291
293 293 294 294 295 295 295 295 295 294 294 294 293 293 293 292 292 292 293 293 292 291 290 290 290 290 289 287 286 286 286 286 286 285 285 285 285 285 285 285 286 286 286 286 287 287 288 289 290 290 291 292 292 292 293 292 292 292 292 291 291 291 290 290 290 290 290 290 290 289 289 288 288 288 289 289 289 290 290 290 290 291 291 291 291 291 291
293 293 293 294 294 295 295 295 295 295 294 294 294 293 293 293 293 293 293 293 292 292 291 290 290 290 290 288 287 286 286 286 286 286 285 285 285 285 285 286 286 285 286 286 286 286 286 286 287 287 287 288 288 288 288 288 288 288 288 288 288 287 287 287 287 287 287 287 287 287 286 287 287 288 288 289 290 290 290 290 290 290 291 291 291 291 291
294 294 293 294 294 294 295 295 295 295 295 294 294 294 293 293 293 293 293 293 293 292 292 291 291 290 290 289 288 287 287 286 286 286 286 286 286 286 286 286 286 286 285 285 285 285 285 285 286 286 286 286 286 286 286 286 286 286 286 286 286 286 286 286 286 286 286 286 286 286 286 286 286 287 288 288 289 290 289 290 290 291 291 290 290 290 290
294 294 294 294 294 294 294 294 294 295 295 295 295 294 294 294 294 293 293 293 293 292 292 291 291 291 290 290 289 289 288 287 286 286 286 286 286 286 286 286 286 286 285 285 285 285 285 285 285 285 285 285 285 285 285 285 285 285 285 285 285 285 285 285 285 285 286 286 286 286 285 285 286 286 287 287 288 289 289 289 290 290 289 289 289 288 288
294 294 294 294 294 294 294 294 294 295 295 295 295 295 295 295 294 294 293 293 293 293 292 292 292 291 290 290 290 290 289 287 287 286 286 286 286 286 286 286 286 286 286 285 285 285 285 285 285 285 285 285 285 285 285 285 285 285 285 285 285 285 285 285 284 285 285 285 285 285 285 284 285 285 286 286 287 287 287 287 287 288 288 287 287 287 287
Wind_Speed
4 4 4 4 4 4 2 4 3 3 4 5 4 1 2 2 5 5 4 5 4 2 5 6 6 5 4 6 10 8 6 4 1 5 8 10 11 12 12 11 11 10 10 10 10 11 10 10 9 7 7 7 6 6 7 7 8 8 8 7 7 8 10 13 14 14 14 13 13 14 13 12 13 16 16 16 19 20 20 21 22 21 20 19 20 21 20
5 5 5 5 5 5 5 6 4 2 4 6 5 2 1 1 2 3 7 10 6 3 4 5 5 5 8 13 15 13 9 6 2 4 6 7 8 10 11 12 13 13 13 12 11 11 10 10 9 9 8 8 7 6 7 7 8 8 7 8 8 7 8 10 12 13 13 13 14 14 14 13 13 14 15 15 16 16 14 12 13 13 13 13 13 13 13
4 5 4 4 5 7 3 4 5 3 5 6 4 3 2 2 3 4 7 10 6 3 4 5 7 12 17 19 20 18 15 10 6 6 5 5 5 6 8 10 12 14 15 14 13 12 11 10 9 8 8 7 6 6 6 6 6 6 7 7 8 7 7 7 9 10 11 11 12 13 12 11 10 10 10 10 8 6 5 4 4 4 5 5 4 4 5
1 2 3 4 6 9 5 1 4 4 3 4 3 2 2 1 3 5 6 6 2 2 3 7 13 19 21 20 19 21 21 16 12 10 9 7 5 4 5 7 9 11 13 15 15 14 13 11 10 8 7 7 6 5 5 5 5 6 6 6 7 8 7 7 7 7 8 8 9 9 9 8 8 8 8 7 6 5 4 3 3 3 2 3 3 3 4
3 1 2 4 5 6 2 2 2 3 2 4 4 4 4 3 2 5 4 4 4 2 2 6 11 15 17 18 19 21 22 22 20 17 14 13 11 9 6 5 6 8 10 12 13 13 13 13 12 11 9 8 7 6 6 5 5 6 6 6 7 7 8 8 8 8 8 8 8 8 8 8 8 8 7 6 5 4 4 3 2 2 2 2 3 5 6
4 2 2 3 3 2 3 5 3 1 2 5 6 4 4 5 3 3 3 4 3 3 5 8 10 12 15 19 22 23 24 24 24 21 18 17 16 15 12 10 9 8 8 9 10 10 11 11 11 12 11 10 8 7 6 5 5 5 5 5 5 5 6 6 7 7 7 7 7 6 6 6 6 5 5 4 4 3 3 3 3 4 4 5 5 6 7
4 0 4 4 2 5 3 4 3 2 5 7 10 8 4 6 5 4 6 6 5 6 9 12 15 17 20 24 26 26 26 25 25 23 20 17 15 14 13 11 11 11 10 9 9 9 10 9 9 10 10 10 9 8 6 5 4 4 5 6 6 6 6 6 6 6 7 7 7 7 7 7 6 6 5 5 5 5 6 5 5 5 5 5 5 5 6
3 2 3 3 3 4 3 4 4 2 2 3 7 7 6 6 5 3 4 4 2 5 7 10 13 16 21 27 27 25 24 24 25 24 22 19 15 13 11 9 7 6 7 7 6 5 5 5 5 5 5 5 6 7 7 6 5 4 4 6 7 7 6 6 6 6 6 6 7 8 8 8 8 7 7 7 7 7 7 7 6 6 5 5 4 4 5
3 4 2 1 3 4 2 2 1 1 1 1 3 4 2 4 4 2 4 3 3 3 4 5 8 10 16 20 20 21 21 20 21 21 20 19 17 15 14 11 8 6 4 5 6 2 2 4 4 3 3 5 6 7 8 7 6 5 5 5 6 6 5 5 4 4 4 5 6 8 9 9 9 9 8 8 7 7 7 7 6 5 5 5 6 7 8
3 5 3 2 3 2 4 4 2 2 3 3 5 5 1 4 4 3 5 4 5 5 5 2 4 4 8 7 9 15 17 15 15 16 16 15 15 15 14 12 12 10 6 6 6 4 1 4 6 6 6 6 6 8 9 8 8 8 7 7 7 7 6 5 5 5 6 6 7 8 9 9 10 9 9 8 7 7 6 6 6 6 7 8 9 10 10
3 5 4 2 3 3 4 4 5 8 6 4 5 5 1 3 2 4 6 7 7 8 9 7 4 4 4 1 3 10 13 12 12 12 11 11 11 11 11 10 10 10 8 5 4 4 2 1 3 6 9 8 7 8 8 7 9 10 9 9 10 10 10 11 11 11 10 11 10 9 9 10 10 10 9 9 8 8 8 8 8 8 9 9 10 11 11
2 4 3 2 3 2 2 4 7 10 4 3 5 2 4 3 2 5 8 10 10 9 11 10 8 5 4 2 2 8 9 9 11 10 10 10 10 10 10 9 8 7 6 5 5 5 4 4 3 4 8 10 10 10 9 8 9 10 9 10 11 12 12 12 13 13 13 13 13 12 12 12 12 12 12 11 11 11 11 11 10 10 10 10 11 12 13
3 4 3 1 2 2 2 5 9 8 2 5 3 4 6 1 5 7 10 12 11 12 12 11 8 5 5 3 3 6 8 8 9 10 10 11 12 12 13 12 11 10 9 8 8 8 8 8 9 9 9 9 11 13 13 12 13 13 13 13 14 15 16 16 16 15 15 15 15 16 16 16 15 15 15 14 13 13 13 13 12 12 13 13 14 15 15
2 3 3 1 2 3 5 6 8 7 3 4 3 4 3 5 7 8 10 10 10 11 12 10 8 5 4 4 5 7 9 10 10 11 12 12 13 14 14 14 15 14 13 13 12 11 10 10 11 11 11 10 10 12 13 13 14 13 13 14 15 16 18 20 20 19 19 19 19 18 18 18 17 16 16 15 15 15 15 15 15 15 16 16 16 16 16
2 2 3 3 3 5 10 6 4 6 3 5 5 6 6 7 8 8 9 9 9 9 8 7 6 5 5 6 7 9 10 11 12 13 14 15 16 16 16 17 17 18 17 17 17 17 15 14 13 13 14 13 13 13 15 15 15 15 14 15 16 16 18 21 22 21 20 20 19 18 17 17 16 16 16 16 16 16 16 16 16 16 16 16 16 16 15
2 2 1 2 4 5 9 6 4 3 6 9 8 8 6 7 7 7 7 7 7 7 7 7 7 7 8 9 10 12 13 14 15 16 17 18 18 19 19 19 20 20 21 21 20 20 20 19 17 16 16 16 16 16 16 16 18 19 18 18 18 18 19 20 22 21 21 21 20 19 18 17 17 17 17 17 17 17 17 17 17 16 15 16 16 16 16
2 3 2 4 3 3 11 15 13 11 11 9 7 6 5 4 3 3 5 5 6 7 8 9 9 10 11 12 13 15 16 17 18 18 19 19 20 21 21 22 22 22 22 23 23 23 22 21 20 20 19 19 19 18 16 16 18 20 21 21 21 20 20 20 22 23 23 23 23 22 21 21 20 19 19 18 18 18 18 18 17 16 16 17 18 18 19
4 6 5 5 5 6 11 14 13 12 11 8 6 4 3 1 1 2 3 5 6 7 9 11 11 12 13 15 16 17 18 19 19 20 20 21 21 22 23 23 23 23 24 24 25 25 24 22 21 21 20 21 22 20 18 16 16 17 19 21 21 21 21 20 21 23 24 25 25 24 23 22 22 21 21 20 20 20 19 19 18 18 19 19 20 21 23
3 3 3 4 4 7 11 12 12 11 10 8 7 5 4 3 3 2 3 4 5 7 8 10 11 12 14 16 17 18 19 20 21 22 23 24 24 24 25 24 24 25 25 26 26 26 26 24 22 21 21 21 22 22 21 18 17 16 17 17 18 19 19 19 20 22 23 23 23 22 22 21 21 21 21 21 21 22 21 21 21 21 22 22 23 24 24
1 2 4 5 6 6 8 10 10 9 8 6 5 4 2 2 2 2 3 4 6 8 9 11 13 14 15 17 18 20 21 22 23 24 25 26 27 27 27 27 27 27 27 27 27 27 27 26 24 23 23 22 22 23 22 21 20 20 19 17 17 17 17 17 18 19 20 20 20 20 20 20 20 21 21 21 22 22 22 22 22 23 23 24 24 24 23
2 0 2 5 4 3 5 7 7 5 4 3 1 1 2 3 4 5 6 8 9 10 12 13 15 16 17 18 20 22 23 24 25 26 27 28 29 29 30 30 30 30 30 30 30 31 30 28 26 25 24 24 24 24 23 22 22 23 23 22 20 19 18 17 17 17 18 19 19 20 21 21 21 21 21 22 22 23 23 23 23 24 24 24 23 22 20
1 2 6 9 4 1 6 9 6 4 4 2 2 3 4 5 6 7 8 9 10 11 13 14 16 18 19 20 21 22 22 23 24 25 26 27 28 29 29 30 30 31 31 32 32 33 33 32 30 28 25 24 23 22 22 22 22 22 24 24 24 23 22 20 19 18 18 19 20 21 21 22 23 23 23 24 25 25 25 25 25 25 25 24 22 21 20
3 4 10 12 5 1 5 7 6 5 4 4 4 4 5 6 7 8 8 10 11 13 14 16 18 19 19 19 19 19 20 20 21 23 24 26 27 28 29 30 30 31 31 31 32 33 33 33 33 31 28 24 21 20 19 19 20 20 21 23 25 25 24 22 21 20 19 20 21 22 23 24 24 25 26 26 27 28 29 28 27 27 27 25 24 23 23
1 3 7 7 3 1 3 4 5 4 4 4 4 5 6 6 7 9 10 13 15 16 17 17 17 16 16 16 16 18 19 20 21 22 23 25 26 28 29 30 30 31 32 32 32 33 33 33 33 31 28 24 20 18 19 18 18 18 19 19 20 20 19 20 20 20 21 22 23 24 25 26 26 27 28 29 30 31 31 31 29 29 29 28 27 26 25
0 2 5 4 3 3 4 4 4 4 3 3 4 5 5 6 9 11 14 16 16 16 16 14 12 11 13 14 15 17 18 20 21 23 24 25 25 26 27 27 28 29 29 30 31 32 32 32 31 30 26 23 19 17 18 18 17 17 18 17 16 15 16 18 20 21 22 24 24 26 26 27 28 29 30 31 32 32 31 31 31 31 31 30 29 27 26
0 3 4 4 4 5 5 5 5 4 3 3 4 5 6 8 13 15 16 15 13 11 11 10 9 10 12 14 16 18 20 22 24 25 26 26 26 26 25 25 26 26 26 27 28 28 29 30 28 25 22 20 19 17 16 16 16 16 17 16 15 15 16 18 19 20 22 23 24 26 27 28 30 30 31 32 32 31 31 31 30 30 30 29 27 24 22
3 4 4 3 3 5 6 6 5 4 3 4 5 6 9 13 15 14 12 9 7 6 7 9 10 12 14 15 17 20 22 25 27 28 28 27 27 26 24 23 24 24 24 26 27 26 27 26 25 23 20 19 20 18 16 15 15 15 16 16 15 14 14 16 17 19 20 22 24 25 27 28 29 30 30 30 30 30 30 29 28 28 27 24 21 19 19
5 5 5 4 5 5 6 5 4 4 4 5 6 8 11 14 13 10 7 5 5 6 7 9 11 13 15 17 19 21 24 26 27 28 29 28 26 25 23 23 23 24 24 25 25 24 25 24 23 25 23 20 21 19 16 14 14 14 14 14 13 12 13 15 16 18 20 22 23 25 26 26 27 28 29 29 29 28 26 24 24 23 19 16 15 17 19
8 7 6 7 7 6 6 5 5 4 5 6 7 9 11 11 10 8 6 6 7 8 9 10 12 14 17 19 21 23 26 27 27 28 28 27 24 23 22 23 24 25 25 24 22 21 21 20 20 23 22 20 22 20 16 13 13 12 10 10 11 11 12 15 16 18 20 21 22 23 23 24 25 26 27 27 25 22 20 19 18 14 12 12 16 19 19
9 8 7 7 7 6 6 5 4 4 5 5 6 7 9 9 9 8 6 7 8 9 10 12 15 17 19 22 24 26 26 26 27 28 27 25 23 22 23 24 25 26 27 26 24 22 20 19 18 20 19 18 23 23 17 13 11 9 7 8 9 10 13 15 17 18 18 18 19 20 21 21 22 23 24 22 19 15 14 14 13 12 12 14 16 17 18
7 8 8 7 6 6 6 5 4 5 6 5 5 7 9 9 8 7 7 8 9 10 12 14 17 19 21 23 26 26 26 25 26 25 23 22 22 22 22 23 24 26 27 27 24 21 19 17 18 19 16 15 22 25 19 12 10 8 6 6 8 11 14 15 14 13 12 12 14 15 16 17 17 17 17 16 15 13 13 13 14 15 16 17 17 17 19
7 8 7 7 7 7 7 6 6 6 6 5 6 8 9 8 7 7 8 10 11 12 14 16 18 20 22 24 26 26 25 24 24 23 21 21 20 21 21 21 22 24 25 23 20 16 14 14 16 15 11 10 18 24 20 12 8 6 4 5 8 11 11 9 6 5 4 6 9 10 10 9 9 11 13 15 16 15 14 14 14 16 19 21 21 21 22
7 7 7 8 9 10 10 9 8 7 5 5 6 8 8 7 7 8 10 11 13 13 14 16 18 20 22 24 26 25 24 24 23 21 20 20 20 21 21 21 20 21 21 19 16 13 11 11 11 10 7 7 15 22 20 13 7 5 3 5 8 8 6 4 2 2 2 4 7 7 5 2 4 6 9 11 12 12 13 13 15 18 22 23 23 23 22
6 6 6 6 7 8 9 9 8 6 5 5 6 7 6 6 8 10 10 12 13 14 15 17 18 19 21 24 23 22 22 23 23 22 21 20 21 22 21 18 17 16 15 15 14 12 8 7 6 6 7 8 13 20 19 13 8 6 5 5 5 4 3 2 1 1 2 3 5 8 7 4 5 7 9 12 14 16 18 20 22 23 23 23 22 22 20
5 6 6 6 6 6 6 6 5 4 4 4 5 4 5 6 9 11 11 12 14 15 17 18 17 18 21 22 20 19 19 21 22 21 20 19 19 20 19 17 15 14 14 13 12 9 5 3 3 6 9 12 16 19 18 13 10 8 6 5 5 3 1 2 2 2 2 3 7 11 13 13 13 14 16 18 20 21 22 22 22 22 21 21 21 20 18
5 5 6 6 6 4 4 4 4 3 3 3 3 4 5 8 10 11 12 13 14 15 17 16 15 16 20 20 18 16 17 19 20 20 18 17 18 19 18 16 15 15 16 17 15 11 5 3 6 9 13 16 18 18 16 14 11 8 6 6 4 1 2 2 2 3 5 7 10 12 14 16 17 17 17 18 18 18 18 17 17 17 17 17 16 15 15
5 5 6 6 5 3 4 4 4 4 4 3 4 5 7 8 10 11 12 13 14 15 14 13 13 16 19 18 15 14 15 17 19 18 17 16 17 18 18 18 18 17 18 19 20 18 12 9 10 13 15 17 18 16 15 12 9 7 6 5 2 1 2 4 4 4 5 7 9 10 12 13 14 14 13 13 13 13 12 12 13 14 14 13 12 11 11
5 6 7 6 3 4 3 3 3 4 4 5 5 6 7 8 10 12 13 14 14 13 12 11 13 16 17 16 14 13 14 15 16 17 16 16 17 17 19 20 20 19 18 17 18 18 15 12 12 14 15 16 16 15 13 10 8 7 5 4 5 6 6 7 7 7 7 8 8 9 9 9 11 11 11 10 10 10 10 10 10 10 10 10 9 8 7
5 5 6 5 4 5 4 4 4 4 4 5 6 6 6 8 10 12 13 14 13 11 9 10 12 15 15 14 13 13 13 13 14 15 16 17 17 17 17 18 19 19 16 13 12 13 13 11 11 12 13 14 15 13 10 8 8 7 6 7 9 10 10 11 12 12 11 10 9 8 6 5 6 8 9 9 8 8 8 8 6 5 5 5 5 6 6
5 5 5 5 5 5 5 5 4 4 5 6 6 4 4 7 10 10 11 12 11 9 9 10 12 14 15 14 13 14 14 13 12 13 14 16 17 17 19 19 20 20 17 13 10 9 8 8 10 12 13 14 13 11 9 8 8 7 6 8 9 9 11 13 13 12 12 11 10 9 8 6 5 4 6 8 8 7 7 7 6 6 5 4 4 5 7
6 6 6 5 5 6 5 5 4 5 6 5 3 3 4 7 8 8 9 10 10 9 9 10 11 13 15 14 14 14 13 12 11 12 13 15 17 19 21 21 21 20 19 16 11 7 6 8 11 13 13 13 11 9 8 8 7 6 6 7 7 7 9 11 12 11 11 10 9 9 8 7 6 6 7 7 7 6 6 6 6 5 5 4 4 5 6
7 7 7 7 7 7 6 5 5 5 5 4 2 2 4 5 6 6 7 9 10 10 10 10 11 13 14 14 14 14 13 11 11 11 13 15 17 19 20 20 20 19 18 16 13 9 7 8 10 10 10 10 9 8 8 8 7 5 5 5 5 6 8 9 10 10 10 9 8 8 8 7 6 5 6 5 5 5 5 4 4 4 3 4 4 5 6
7 9 9 8 8 8 7 6 6 6 6 4 3 2 3 4 5 5 6 8 10 11 11 11 11 12 14 14 14 14 14 13 12 11 12 13 14 16 17 17 17 17 16 16 15 13 10 8 7 7 7 8 9 8 8 8 7 6 5 4 6 7 7 8 8 9 9 8 7 7 7 6 5 5 4 4 3 3 3 2 2 2 3 4 5 6 7
9 10 10 9 9 9 8 8 8 8 6 5 4 4 4 4 4 4 4 5 7 9 11 11 12 12 13 14 14 14 14 13 13 12 11 10 10 12 14 15 15 14 14 14 15 15 15 12 10 7 6 7 8 8 7 6 7 8 8 6 7 6 6 6 7 7 7 6 6 6 5 5 4 3 3 2 1 1 1 2 3 3 4 5 6 7 7
10 11 11 10 10 10 11 11 11 10 8 6 6 6 5 5 4 4 4 4 5 7 9 11 12 12 12 13 13 13 13 13 13 12 11 10 10 11 12 13 14 13 13 12 13 15 16 15 13 11 9 7 6 5 5 5 6 6 7 6 5 4 4 5 6 6 5 4 4 3 3 2 2 1 0 1 2 3 4 5 5 6 6 7 7 7 7
11 11 11 11 12 12 12 12 11 11 10 10 9 8 6 6 5 5 5 5 4 5 6 8 10 11 11 12 12 13 13 13 13 13 13 12 12 12 12 12 12 13 12 11 12 14 15 14 13 12 12 11 8 6 6 6 7 7 6 6 5 4 5 5 4 4 3 2 2 1 1 1 2 2 3 4 4 5 5 4 4 4 4 4 4 4 4
11 11 12 12 12 12 12 12 12 13 13 14 13 10 8 7 6 6 6 6 6 5 4 6 7 9 10 10 11 11 12 12 12 13 13 13 12 12 11 11 11 12 11 11 12 13 13 12 11 11 10 10 9 8 8 8 7 7 6 6 5 4 4 3 3 2 2 2 2 2 2 2 2 2 2 2 2 2 3 3 4 3 3 3 3 3 2
13 13 13 13 12 11 12 14 15 16 17 17 16 13 10 9 8 7 7 7 7 6 5 4 5 7 8 9 9 9 9 10 10 11 11 11 11 11 11 11 11 11 11 11 11 11 11 11 11 10 9 9 8 7 7 7 6 6 5 5 4 4 4 3 3 2 2 2 3 3 4 5 6 7 7 7 8 8 9 9 8 8 8 8 8 8 8
17 16 15 14 14 13 13 15 17 18 18 18 18 16 14 12 11 10 9 9 9 8 6 5 5 5 6 8 8 8 8 8 8 8 9 10 10 10 10 11 11 12 12 12 11 11 11 11 10 10 9 8 8 8 8 7 7 6 6 6 5 5 5 5 5 5 5 5 6 7 8 9 9 9 9 9 10 11 11 11 10 11 11 12 12 13 13
19 19 18 17 17 16 15 15 15 15 15 16 17 17 16 15 15 14 12 11 10 9 8 6 6 5 5 5 6 7 6 6 6 6 7 7 7 8 9 9 10 11 11 11 11 12 12 11 11 10 10 9 9 8 8 8 7 7 6 6 6 6 6 6 7 7 8 9 10 10 11 10 10 10 10 11 11 12 12 12 13 13 14 14 14 14 15
21 21 20 19 19 18 17 15 13 12 12 12 13 14 16 17 17 16 15 14 13 12 10 9 7 5 4 4 5 5 6 5 5 5 5 4 5 5 6 7 8 9 9 10 10 11 11 11 11 11 10 10 10 9 9 9 8 8 7 7 7 7 7 7 7 7 8 10 11 12 12 12 11 10 10 10 11 12 12 13 14 14 14 14 14 14 15
21 21 21 20 20 20 19 17 14 13 13 12 13 13 15 16 17 17 18 18 17 15 13 11 9 7 5 5 5 5 4 4 3 3 3 3 3 3 5 5 6 7 7 8 8 9 10 10 10 10 10 10 10 10 10 10 10 9 9 9 8 8 8 8 8 8 8 9 10 10 11 11 10 9 9 10 10 11 12 13 14 14 14 14 14 15 15
Wind_Direction
31 61 24 4 59 67 67 84 63 337 12 52 83 129 269 137 138 208 217 103 90 323 333 337 327 332 353 27 34 44 56 54 141 183 178 174 170 170 168 166 164 160 156 153 150 151 152 151 156 165 174 179 174 162 150 144 141 141 146 155 164 177 191 203 210 213 218 224 227 229 230 223 222 234 244 249 255 260 263 263 262 261 262 259 257 259 261
28 31 24 29 71 65 23 15 12 22 70 81 98 108 317 33 135 166 125 96 67 320 308 324 340 28 63 62 56 56 57 58 106 170 181 183 179 177 173 169 168 168 166 164 163 162 160 158 159 159 162 164 162 159 150 144 146 148 150 157 163 168 182 200 212 219 224 228 230 234 240 242 240 243 249 253 255 257 259 262 260 255 254 254 254 256 258
7 358 31 52 92 102 77 356 356 36 86 84 70 47 5 48 90 107 101 89 64 360 353 14 44 65 67 60 53 50 52 62 98 126 142 160 170 177 178 176 174 173 173 171 169 167 165 162 157 153 153 153 155 158 150 144 149 147 146 154 158 161 173 192 208 216 220 224 228 233 236 238 236 233 235 236 233 231 229 225 224 227 235 244 249 250 248
261 314 95 118 106 104 109 18 2 10 59 95 75 42 18 58 140 132 101 95 102 329 11 48 60 64 63 56 49 50 54 63 80 93 102 113 124 146 175 183 180 176 174 172 170 169 168 167 164 160 155 149 150 151 144 147 151 144 143 148 149 150 153 161 172 180 188 194 197 199 195 189 188 186 188 191 188 187 189 189 195 203 215 235 249 253 255
186 278 98 123 100 97 138 273 337 5 78 120 98 47 13 1 131 146 141 156 193 251 42 71 64 60 62 58 52 52 55 62 71 79 85 91 95 98 111 144 162 166 168 168 169 170 168 166 165 165 164 162 164 162 156 158 158 154 160 167 165 161 154 154 158 159 162 168 169 170 167 165 168 170 172 178 180 181 181 175 177 192 215 238 248 254 259
170 257 22 68 96 153 234 274 271 192 143 127 104 71 5 355 35 117 135 132 129 93 85 91 84 75 71 65 60 58 59 63 69 74 78 83 84 84 84 91 101 112 131 145 152 157 159 162 162 162 164 166 167 170 172 177 180 184 197 198 194 189 176 169 171 171 175 178 173 170 168 162 162 161 166 177 182 191 209 226 242 251 253 255 255 256 260
148 206 51 87 186 224 252 310 323 124 122 116 106 90 42 15 28 63 86 91 105 108 102 97 94 89 78 69 63 60 60 63 68 71 74 80 84 80 76 78 83 85 93 109 125 134 138 146 155 155 152 151 152 155 162 180 198 213 227 223 215 212 205 197 191 184 182 182 180 179 177 174 172 169 173 187 198 212 227 237 244 248 248 249 252 257 263
141 102 86 153 225 266 285 323 341 69 92 81 86 71 29 12 12 48 85 81 88 112 109 101 99 94 79 66 59 58 61 63 63 65 67 69 71 67 59 55 60 65 67 74 86 109 124 137 151 154 157 167 168 162 161 170 176 179 202 212 206 204 208 207 201 193 187 186 185 184 183 184 185 184 189 196 202 210 214 216 219 224 229 239 255 272 284
140 115 120 186 354 343 275 286 340 102 329 318 115 104 23 343 352 56 110 77 47 88 108 113 119 101 77 61 47 49 59 62 62 63 63 62 61 58 54 50 47 46 47 55 53 34 230 202 186 177 194 212 212 200 187 179 173 170 179 197 196 189 187 186 188 196 204 204 195 188 186 187 187 190 195 200 205 209 211 215 222 231 246 266 280 288 293
112 100 97 41 20 291 233 235 265 2 334 247 165 117 36 323 351 63 119 91 52 62 66 98 170 117 66 45 20 35 50 56 57 60 59 57 56 53 53 55 53 54 61 66 55 34 304 210 210 216 217 215 215 216 213 209 210 209 206 215 223 224 226 235 246 248 246 239 220 200 192 191 193 198 204 207 212 216 222 233 244 256 269 278 283 286 288
112 112 131 162 184 224 239 248 292 336 332 230 146 85 338 274 1 61 100 88 69 66 61 64 105 99 71 30 344 26 37 36 38 42 42 41 41 38 37 39 43 46 48 45 31 18 26 174 227 237 238 234 225 220 222 225 227 225 224 233 239 239 244 248 247 245 243 240 233 224 220 220 221 223 226 230 235 242 249 257 263 269 277 282 284 288 290
117 120 138 176 197 227 255 267 310 335 327 173 116 95 251 257 49 71 87 82 71 66 65 65 72 88 118 167 3 21 23 14 11 9 7 7 4 360 360 358 1 11 11 360 343 334 328 320 311 285 262 254 247 242 240 235 234 238 244 246 237 230 236 245 245 243 244 243 241 242 245 246 244 244 247 250 254 260 265 270 274 275 279 283 286 290 294
71 105 115 21 255 250 284 309 332 355 92 140 126 207 228 162 89 91 81 77 67 60 65 72 79 92 99 82 24 7 360 350 346 345 342 340 337 335 333 329 325 322 315 311 312 311 308 301 297 296 290 278 265 257 251 245 243 249 256 257 248 241 244 249 250 251 253 254 253 251 253 255 254 255 258 259 261 267 271 274 279 283 284 285 287 290 293
51 113 110 74 243 302 338 327 339 14 93 173 211 200 165 99 100 92 74 72 63 53 58 66 74 79 56 20 347 338 338 333 331 329 324 319 316 313 311 310 310 305 299 295 293 291 293 292 290 291 293 287 272 262 258 255 252 252 252 253 253 252 249 247 246 249 254 256 257 255 254 257 258 259 261 263 265 270 273 277 285 292 291 289 288 290 292
61 86 64 100 180 321 341 330 329 7 68 162 146 119 110 94 86 74 65 64 52 40 39 38 33 20 1 346 332 329 328 324 325 323 318 315 312 307 305 304 302 300 297 293 288 286 286 284 285 288 290 288 281 272 268 267 264 260 256 252 250 251 249 244 243 246 249 251 254 256 256 258 261 263 264 267 269 272 274 279 287 292 292 290 289 290 290
84 115 71 151 202 324 6 55 104 79 111 129 113 97 91 75 57 41 36 33 22 13 8 359 351 344 339 332 326 323 319 317 318 316 313 313 310 307 306 305 303 301 299 295 291 288 285 283 281 280 281 284 284 281 277 273 267 264 263 260 255 251 248 244 244 245 247 249 252 255 256 258 261 264 265 266 267 269 273 279 285 289 290 290 290 290 288
82 109 132 161 179 50 66 88 102 109 117 118 104 96 90 65 29 358 360 356 341 336 334 329 330 331 328 323 321 318 315 313 313 312 311 310 308 306 305 303 302 301 298 297 295 291 289 287 283 278 275 275 276 277 278 277 271 265 262 260 258 255 251 249 248 248 247 248 250 252 254 256 259 261 262 263 265 269 273 277 280 284 285 284 284 283 282
75 71 101 141 147 116 108 111 114 117 123 125 122 125 136 155 234 285 314 320 319 322 320 319 324 326 321 319 319 316 313 313 312 311 309 308 306 305 304 302 301 299 296 295 294 291 290 289 286 281 276 271 269 269 270 270 266 261 257 254 253 252 248 247 249 250 248 247 247 247 248 250 252 253 256 261 265 269 272 273 275 277 277 277 277 277 277
94 92 147 158 141 134 135 135 136 136 137 142 147 153 165 176 193 244 282 300 308 311 312 314 316 318 317 316 314 312 311 310 310 308 307 305 303 302 301 301 300 298 296 294 292 290 289 287 286 283 278 273 270 267 265 262 258 255 252 247 244 244 243 243 245 245 245 244 244 244 245 247 249 252 254 258 261 263 264 266 268 271 272 273 274 275 276
96 184 178 143 131 145 148 142 146 150 148 151 159 161 164 188 228 272 290 299 305 307 310 312 311 313 313 312 310 309 308 307 306 304 302 300 299 297 297 297 295 294 292 291 289 289 287 287 286 282 279 276 274 271 267 261 257 255 253 249 245 244 244 245 244 242 242 243 245 246 248 250 252 254 255 255 256 256 258 261 264 267 269 270 271 272 272
72 77 153 135 126 167 183 170 164 165 162 161 188 292 311 304 303 304 302 302 305 307 308 309 309 308 308 307 306 305 304 302 302 300 298 297 297 295 294 293 291 290 288 287 286 285 284 283 283 281 278 276 274 274 273 268 262 258 256 253 252 251 250 251 252 250 248 249 251 253 255 256 258 260 261 261 261 263 264 266 268 269 268 268 269 268 267
119 237 177 166 160 241 207 195 190 192 201 238 289 294 292 291 288 289 292 294 299 303 303 305 306 306 306 306 304 302 303 303 302 300 300 298 297 296 295 293 291 289 287 286 284 282 281 280 278 275 275 275 275 275 276 275 271 265 258 255 254 255 255 257 258 256 255 255 256 258 260 262 264 264 265 266 267 269 270 270 270 271 270 269 268 265 262
210 199 174 177 186 205 194 197 200 205 227 270 286 279 283 287 286 290 298 302 305 307 308 308 309 309 309 309 307 307 308 308 306 304 303 300 298 297 295 293 292 291 289 288 285 284 283 281 278 273 268 268 272 275 274 273 273 268 261 255 252 251 255 258 258 258 260 261 261 262 264 264 265 265 266 267 269 270 271 269 269 269 269 269 266 263 261
170 174 176 190 211 205 197 211 214 225 256 280 282 285 291 295 301 309 314 315 314 313 312 312 312 311 310 311 313 313 313 313 311 309 307 305 302 299 295 293 291 289 288 287 285 285 285 284 284 279 268 258 259 268 268 266 265 261 254 249 246 247 253 256 256 258 259 259 261 262 263 263 264 265 266 267 268 269 270 270 269 269 269 268 266 263 261
10 200 196 204 218 219 225 232 232 247 267 267 282 301 308 315 322 323 320 318 316 313 312 314 316 316 317 321 323 321 321 321 319 316 313 311 309 306 301 297 293 290 288 286 283 283 283 283 285 286 274 253 244 254 260 259 257 252 245 241 242 247 250 251 251 252 253 255 258 259 261 262 263 264 265 266 266 268 269 270 271 270 268 266 264 261 258
182 195 207 218 224 228 239 247 246 249 257 269 293 310 320 328 327 323 318 317 316 315 317 322 326 329 330 331 330 327 326 326 325 322 320 319 318 315 307 301 298 297 296 294 290 287 285 283 283 286 275 248 233 240 251 254 254 251 245 241 242 245 248 250 251 253 255 257 259 260 262 263 263 263 265 265 266 268 270 271 272 272 270 268 264 259 252
218 217 224 231 239 244 250 256 257 257 277 295 303 313 322 323 322 319 317 318 320 327 331 330 331 334 334 332 329 326 325 324 324 323 322 322 322 318 311 306 304 303 301 299 297 293 290 286 281 278 267 240 224 230 242 248 251 253 248 241 237 240 250 256 259 261 264 265 265 266 265 265 265 265 266 266 267 269 269 270 270 270 268 265 258 246 233
240 248 255 270 288 283 270 264 260 269 294 301 302 311 317 319 319 318 318 321 330 337 342 343 342 340 337 333 328 324 322 321 321 321 321 322 321 319 315 311 308 305 301 298 295 292 291 287 280 274 264 238 219 223 236 242 248 252 246 240 240 248 261 270 273 274 274 273 271 271 269 267 267 267 266 266 268 268 267 267 265 261 258 253 239 223 214
252 258 273 292 303 301 287 270 254 260 285 295 300 312 318 318 317 317 317 328 339 345 351 355 355 350 343 337 331 327 324 322 322 322 323 323 321 318 315 313 310 309 306 304 302 298 294 289 282 277 268 240 219 219 227 235 243 249 247 247 256 268 279 286 288 285 281 279 276 274 272 270 268 266 266 267 267 263 259 257 249 238 232 228 214 203 201
257 262 279 294 299 293 282 267 256 271 291 296 304 316 320 316 313 315 322 334 341 345 348 350 349 347 343 338 335 333 328 325 324 326 327 326 323 321 319 316 313 311 308 307 307 304 298 291 281 275 268 245 222 217 218 226 234 241 246 256 271 289 296 297 294 290 286 285 282 280 278 273 268 264 263 260 253 244 239 233 219 206 209 211 202 198 200
267 269 277 281 281 279 272 264 273 296 304 299 297 307 314 315 314 318 327 333 336 340 341 340 339 340 340 338 336 334 330 329 332 332 329 326 323 322 320 315 309 305 303 304 305 303 298 289 277 272 271 251 222 211 209 216 223 225 238 264 288 302 302 297 296 294 292 294 295 291 283 271 261 256 250 236 221 213 210 207 205 207 207 201 193 193 190
269 264 262 259 259 261 257 258 275 296 298 288 288 302 313 315 315 321 327 330 331 332 332 331 333 337 339 338 337 335 335 338 340 335 327 324 326 326 323 317 310 306 305 306 307 303 294 285 276 272 273 247 215 205 201 205 210 211 232 279 300 303 298 294 297 298 296 311 319 312 293 265 240 228 217 205 198 200 203 205 207 204 192 180 172 167 161
257 250 254 256 255 254 254 258 268 279 280 275 289 307 316 316 318 325 327 327 328 329 328 328 332 335 336 336 336 337 341 346 344 336 330 334 339 337 331 325 318 314 312 313 315 312 299 289 282 267 244 213 201 196 194 195 196 193 226 281 293 293 283 267 256 253 279 326 345 346 328 266 199 187 187 183 182 184 183 179 174 168 161 156 152 148 147
269 268 276 279 274 269 267 265 262 262 268 277 292 308 317 317 322 326 325 324 327 328 327 329 332 333 335 336 338 340 346 350 347 341 341 347 348 343 338 335 332 330 327 324 323 321 314 303 279 235 196 174 180 186 188 189 186 190 218 258 265 256 248 255 259 249 282 335 24 46 60 91 129 141 146 148 147 146 145 146 147 146 144 144 145 147 149
289 287 288 293 296 288 273 257 239 240 265 278 282 296 315 322 326 328 324 322 323 322 324 329 332 333 334 336 338 343 350 354 351 348 350 354 352 348 348 352 356 0 0 353 343 335 324 296 213 177 160 154 164 175 178 178 181 192 211 223 217 211 326 3 28 54 56 62 73 79 84 93 104 114 121 127 130 132 134 136 138 138 139 142 147 150 153
299 303 298 296 295 282 249 222 212 233 271 272 263 284 312 325 331 329 324 320 320 321 324 330 334 334 336 338 339 343 352 357 356 355 357 0 358 357 1 8 13 19 24 25 24 23 33 108 138 143 146 149 154 160 166 170 177 187 195 195 201 240 9 53 89 93 87 87 90 94 97 99 102 107 113 118 123 127 131 134 137 139 142 146 150 154 158
310 311 310 301 283 242 214 207 218 257 277 261 259 291 313 325 332 332 327 324 325 327 331 337 340 339 340 343 344 345 352 358 359 0 6 10 7 6 12 20 23 25 31 36 38 40 51 86 119 133 140 143 145 152 161 166 168 171 174 177 176 75 91 108 113 120 120 109 103 105 108 108 108 110 113 118 124 130 135 141 146 150 153 155 157 159 162
311 309 312 302 244 197 204 226 247 270 270 253 261 289 309 323 332 335 331 329 332 336 340 344 345 344 345 348 352 353 355 358 1 6 16 21 18 16 19 23 23 24 29 35 38 43 57 83 111 126 132 137 143 151 156 154 149 150 150 129 101 92 89 88 94 111 124 122 117 119 124 125 124 126 127 131 137 141 144 147 151 155 160 166 172 176 179
307 304 309 290 222 205 231 255 262 270 264 257 268 287 306 323 330 332 331 333 340 348 351 350 351 352 353 357 1 2 1 358 360 10 23 30 30 29 29 28 27 28 30 31 33 42 60 84 106 119 129 139 146 147 143 139 142 141 121 102 98 91 75 72 85 99 106 106 104 105 105 109 124 136 137 133 128 128 128 126 123 126 139 157 173 181 184
297 297 303 285 240 228 244 257 263 265 260 259 268 285 312 327 329 329 333 341 350 355 357 358 360 0 3 7 10 9 7 3 3 13 28 37 40 40 40 37 34 33 34 35 35 39 60 94 120 133 139 144 145 141 134 135 142 135 112 105 103 89 72 71 79 88 93 93 89 83 75 67 66 83 100 100 94 92 93 91 87 86 93 109 131 151 165
292 288 286 274 251 237 240 252 262 260 248 244 256 292 316 324 327 329 339 352 1 1 360 3 4 4 9 16 17 12 9 8 10 19 32 41 45 46 44 40 35 32 32 34 39 50 83 116 133 142 142 138 134 130 130 135 138 130 117 115 109 87 73 73 76 79 82 84 81 79 79 76 67 65 72 76 76 77 78 80 83 90 98 112 133 153 171
286 279 272 265 251 238 234 239 244 236 218 206 214 285 307 318 328 338 351 5 10 8 3 3 5 7 12 19 21 17 12 9 12 21 30 39 45 49 47 43 39 36 35 37 44 59 87 112 126 132 130 124 121 123 129 130 124 107 99 111 112 95 81 76 73 71 72 73 73 75 76 72 68 67 66 64 66 75 79 80 88 102 121 147 169 187 201
282 276 271 264 249 238 231 227 224 217 203 195 214 271 299 316 331 349 7 17 19 17 13 9 8 9 11 16 21 23 18 13 14 18 23 29 40 49 52 50 45 43 43 46 54 63 72 87 105 119 124 123 123 124 125 119 100 71 62 93 114 105 90 81 74 70 66 64 65 70 73 72 69 69 69 69 73 83 89 99 120 152 180 198 208 219 228
280 276 274 267 253 240 230 223 220 216 208 207 231 257 276 298 318 336 357 13 19 22 20 15 12 10 8 9 14 20 22 21 19 18 17 20 31 45 55 58 56 52 51 54 60 67 69 69 71 82 105 124 130 131 126 111 83 61 61 86 104 99 88 84 78 72 68 66 65 65 71 75 75 74 78 85 94 125 168 192 210 219 223 228 235 240 245
273 274 275 270 257 243 233 226 222 220 221 230 242 251 258 274 300 322 335 348 5 18 21 19 17 14 9 5 7 13 20 25 26 25 24 26 28 35 47 56 61 63 64 63 65 69 69 65 60 59 65 82 108 127 126 109 87 71 70 80 86 81 80 83 78 70 69 70 65 58 59 60 55 39 304 266 261 257 253 251 249 246 245 247 250 251 252
267 271 273 269 259 247 238 232 227 225 231 238 241 242 248 261 279 301 318 325 334 356 13 19 19 17 13 9 6 8 14 21 27 30 33 34 33 33 37 46 55 64 71 74 75 75 73 70 66 63 61 62 68 77 82 81 76 69 65 66 65 66 71 75 71 66 62 52 35 18 354 328 308 294 290 286 280 275 274 271 264 258 254 257 257 255 255
263 268 269 269 264 252 241 234 229 227 231 237 237 236 240 251 263 279 297 304 306 319 347 8 16 19 17 13 8 8 12 18 23 27 31 36 38 38 40 45 54 63 68 73 76 80 81 81 80 77 72 69 68 69 69 67 63 58 55 55 57 59 61 56 44 33 14 356 352 348 343 350 10 27 33 47 71 89 93 93 91 89 88 87 85 84 84
265 267 267 268 268 259 245 236 232 231 232 236 238 237 237 245 254 264 278 289 292 297 311 332 352 7 15 16 13 10 12 16 19 22 26 31 36 41 45 50 57 63 68 71 75 78 81 83 83 82 82 81 81 81 80 79 76 72 68 64 59 56 52 46 40 38 30 22 28 35 45 59 69 75 79 87 95 99 99 96 94 92 91 90 88 87 88
267 270 269 267 265 259 247 239 237 237 236 237 238 238 238 242 248 254 263 275 282 283 286 297 316 339 2 14 18 16 14 15 19 22 24 26 31 37 43 48 53 58 63 67 72 76 79 79 79 78 78 76 75 76 77 75 72 69 65 61 60 59 56 57 61 67 69 69 68 67 71 77 81 83 86 92 99 101 99 95 92 91 90 88 87 87 87
259 265 268 265 261 256 248 243 243 245 244 241 240 240 241 243 246 248 252 261 268 270 269 275 290 308 330 357 15 19 17 16 18 20 23 27 32 36 40 45 50 55 59 61 64 70 74 76 77 77 77 76 74 73 71 68 66 63 58 57 59 64 67 70 71 73 77 81 82 80 81 82 85 86 87 90 96 99 98 95 94 95 94 91 89 88 87
256 262 266 265 260 256 252 250 252 255 253 248 243 243 243 245 247 248 249 252 256 259 259 261 269 283 300 321 345 1 7 10 12 14 19 27 39 47 50 50 51 54 58 61 61 64 67 70 72 74 75 76 76 76 75 73 71 69 67 67 67 67 70 73 77 81 85 88 87 87 87 88 89 91 93 94 97 101 102 101 102 103 101 97 95 95 95
259 261 264 265 263 259 256 253 252 251 248 244 239 238 239 241 243 244 244 244 246 250 254 256 258 264 275 287 301 320 341 354 1 4 5 10 30 55 66 65 61 60 61 63 65 66 68 69 71 72 72 72 72 73 73 72 71 71 72 74 76 77 78 80 84 91 97 98 96 96 96 94 92 96 102 104 106 110 111 110 110 110 108 106 104 104 104